Effective Sunday, March 17, 2024, the National Weather Service National Data Buoy Center will discontinue its Dial-A-Buoy Interactive Voice Response system. For more information, see Service Change Notice 24-06 (PDF).

Station CBRW3 - Chambers Island, WI Image indicating link to RSS feed of recent meteorological observations for station CBRW3


Conditions at CBRW3 as of
(4:40 am CST)
1040 GMT on 02/26/2024:
     

Click on the graph icon in the table below to see a time series plot of the last five days of that observation.

5-day plot - Wind Speed Wind Speed (WSPD): 0.0 kts
5-day plot - Wind Gust Wind Gust (GST): 1.9 kts
5-day plot - Air Temperature Air Temperature (ATMP): 24.6 °F
5-day plot - Wind Speed at 10 Meters Wind Speed at 10 meters (WSPD10M): 0.0 kts
5-day plot - Wind Speed at 20 Meters Wind Speed at 20 meters (WSPD20M): 0.0 kts
5-day plot -  Wind Speed, Wind Gust and Atmospheric Pressure Combined plot of Wind Speed, Gust, and Air Pressure
Previous observations
TIME
(CST)
5-day plot - Wind Direction
WDIR
 
5-day plot - Wind Speed
WSPD
kts
5-day plot - Wind Gust
GST
kts
5-day plot - Wave Height
WVHT
ft
5-day plot - Dominant Wave Period
DPD
sec
5-day plot - Average Wave Period
APD
sec
5-day plot - Mean Wave Direction
MWD
 
5-day plot - Atmospheric Pressure
PRES
in
5-day plot - Pressure Tendency
PTDY
in
5-day plot - Air Temperature
ATMP
°F
5-day plot - Water Temperature
WTMP
°F
5-day plot - Dew Point
DEWP
°F
5-day plot - Salinity
SAL
psu
5-day plot - Visibility
VIS
nmi
5-day plot - Tide (above MLLW)
TIDE
ft
2024-02-26 04:30 am E 1.0 2.9------ 26.4-----
2024-02-26 04:20 amNNE 1.0 1.9------ 26.2-----
2024-02-26 04:10 am- 0.0 1.9------ 27.1-----
2024-02-26 04:00 am- 0.0 1.0------ 27.3-----
2024-02-26 03:50 am- 0.0 1.9------ 27.0-----
2024-02-26 03:40 am- 0.0 1.9------ 27.7-----
2024-02-26 03:30 am N 1.9 4.1------ 28.4-----
2024-02-26 03:20 am NW 4.1 4.1------ 30.9-----
2024-02-26 03:10 amWNW 4.1 5.1------ 30.9-----
2024-02-26 03:00 amWNW 2.9 5.1------ 30.6-----
2024-02-26 02:50 amWNW 5.1 5.1------ 30.7-----
2024-02-26 02:40 amWNW 4.1 6.0------ 31.1-----
2024-02-26 02:30 amWNW 6.0 6.0------ 31.6-----
2024-02-26 02:20 amWNW 6.0 7.0------ 32.2-----
2024-02-26 02:10 amWNW 6.0 7.0------ 30.7-----
2024-02-26 02:00 am- 0.0 1.9------ 29.5-----
2024-02-26 01:50 am- 0.0 2.9------ 30.0-----
2024-02-26 01:40 am W 2.9 4.1------ 30.2-----
2024-02-26 01:30 am W 1.9 2.9------ 28.0-----
2024-02-26 01:20 am- 0.0 1.9------ 27.1-----
2024-02-26 01:10 am- 0.0 2.9------ 27.1-----
2024-02-26 01:00 amWSW 1.0 1.9------ 27.3-----
2024-02-26 12:50 am- 0.0 1.9------ 27.1-----
2024-02-26 12:40 amWSW-------- 28.2-----
2024-02-26 12:30 am SW 1.0 2.9------ 27.3-----
2024-02-26 12:20 amWSW 1.9 1.9------ 28.6-----
2024-02-26 12:10 amWSW 1.9 2.9------ 27.7-----
2024-02-26 12:00 am SW 1.9 2.9------ 27.1-----
2024-02-25 11:50 pm S 1.9 2.9------ 27.3-----
2024-02-25 11:40 pmSSW 1.9 1.9------ 27.5-----
2024-02-25 11:30 pm S 1.0 1.9------ 27.0-----
2024-02-25 11:20 pm- 0.0 0.0------ 27.5-----
2024-02-25 11:10 pm- 0.0 1.0------ 27.7-----
2024-02-25 11:00 pm S 1.0 1.9------ 27.9-----
2024-02-25 10:50 pm S 1.0 1.9------ 28.2-----
2024-02-25 10:40 pm- 0.0 1.0------ 28.4-----
2024-02-25 10:30 pm- 0.0 0.0------ 29.7-----
2024-02-25 10:20 pm- 0.0 1.0------ 29.1-----
2024-02-25 10:10 pm- 0.0 1.0------ 30.9-----
2024-02-25 10:00 pm- 0.0 1.9------ 32.5-----
2024-02-25 09:50 pmWNW 1.9 2.9------ 32.5-----
2024-02-25 09:40 pm NW 1.9 2.9------ 32.9-----
2024-02-25 09:30 pm NW 2.9 5.1------ 33.4-----
2024-02-25 09:20 pmNNW 4.1 6.0------ 34.9-----
2024-02-25 09:10 pmNNW 5.1 7.0------ 36.5-----
2024-02-25 09:00 pm N 2.9 5.1------ 34.9-----
2024-02-25 08:50 pm N 4.1 6.0------ 34.7-----
2024-02-25 08:40 pm N 4.1 8.0------ 34.5-----
2024-02-25 08:30 pmNNW 7.0 9.9------ 35.4-----
2024-02-25 08:20 pm N 7.0 8.9------ 35.1-----
2024-02-25 08:10 pm N 8.0 9.9------ 35.1-----
2024-02-25 08:00 pmNNW 8.9 12.0------ 35.1-----
2024-02-25 07:50 pm N 7.0 8.9------ 35.1-----
2024-02-25 07:40 pm N 8.0 13.0------ 35.4-----
2024-02-25 07:30 pm N 11.1 13.0------ 36.1-----
2024-02-25 07:20 pm N 11.1 14.0------ 36.1-----
2024-02-25 07:10 pmNNW 8.0 9.9------ 36.5-----
2024-02-25 07:00 pmNNW 6.0 12.0------ 37.2-----
2024-02-25 06:50 pm W 7.0 12.0------ 43.5-----
2024-02-25 06:40 pm W 6.0 8.0------ 44.6-----
2024-02-25 06:30 pm W 5.1------- 45.1-----
2024-02-25 06:20 pm W 5.1 8.9------ 45.5-----
2024-02-25 06:10 pm W 6.0 9.9------ 45.0-----
2024-02-25 06:00 pm W 5.1 12.0------ 45.7-----
2024-02-25 05:50 pmWSW 7.0 12.0------ 45.3-----
2024-02-25 05:40 pmSSW 5.1 9.9------ 46.8-----
2024-02-25 05:30 pmSSW 5.1 8.9------ 46.9-----
2024-02-25 05:20 pmSSW 4.1 11.1------ 46.9-----
2024-02-25 05:10 pmSSW 6.0 11.1------ 46.4-----
2024-02-25 05:00 pm S 5.1 8.0------ 46.8-----
2024-02-25 04:50 pm S 5.1 8.9------ 46.4-----
2024-02-25 04:40 pm S 4.1 6.0------ 46.6-----
2024-02-25 04:30 pmSSE 2.9 7.0------ 46.8-----
2024-02-25 04:20 pmSSE 4.1 8.9------ 46.9-----
2024-02-25 04:10 pmSSE 4.1 8.9------ 47.1-----
2024-02-25 04:00 pm SE-------- 45.9-----
2024-02-25 03:50 pm SE 5.1 11.1------ 45.5-----
2024-02-25 03:40 pm SE 7.0 9.9------ 45.5-----
2024-02-25 03:30 pmSSE 6.0 14.0------ 45.3-----
2024-02-25 03:20 pm SE 7.0 12.0------ 45.3-----
2024-02-25 03:10 pm SE 6.0 15.0------ 44.6-----
2024-02-25 03:00 pm SE 7.0 13.0------ 44.6-----
2024-02-25 02:50 pmSSE 8.0 14.0------ 44.6-----
2024-02-25 02:40 pm SE 6.0 12.0------ 45.0-----
2024-02-25 02:30 pm SE 8.0 13.0------ 44.6-----
2024-02-25 02:20 pm SE 6.0 11.1------------
2024-02-25 02:10 pm SE 8.0 12.0------ 43.7-----
2024-02-25 02:00 pm SE 7.0 9.9------ 43.7-----
2024-02-25 01:50 pm SE 7.0 11.1------ 42.8-----
2024-02-25 01:40 pm SE 6.0 8.9------ 43.0-----
2024-02-25 01:30 pm SE 7.0 11.1------ 43.0-----
2024-02-25 01:20 pm SE 7.0 11.1------ 42.4-----
2024-02-25 01:10 pm SE 7.0 13.0------ 42.4-----
2024-02-25 01:00 pm SE 5.1 8.9------ 43.0-----
2024-02-25 12:50 pm SE 7.0 9.9------ 42.6-----
2024-02-25 12:40 pm SE 5.1 11.1------ 42.8-----
2024-02-25 12:30 pm SE 5.1 11.1------ 41.5-----
2024-02-25 12:20 pmSSE 4.1 11.1------ 41.9-----
2024-02-25 12:10 pmSSE 7.0 11.1------ 40.1-----
2024-02-25 12:00 pm SE 5.1 11.1------------
2024-02-25 11:50 am SE-------- 40.1-----
2024-02-25 11:40 am SE 4.1 9.9------ 39.4-----
2024-02-25 11:30 amSSE 6.0 9.9------ 38.5-----
2024-02-25 11:20 am SE 5.1 9.9------ 37.9-----
2024-02-25 11:10 amSSE 7.0 12.0------ 37.2-----
2024-02-25 11:00 am SE 6.0 11.1------ 37.6-----
2024-02-25 10:50 amSSE 6.0 12.0------ 37.4-----
2024-02-25 10:40 amSSE 8.0 13.0------ 36.7-----
2024-02-25 10:30 am S 7.0 13.0------ 36.9-----
2024-02-25 10:20 am SE 4.1 12.0------ 37.2-----
2024-02-25 10:10 amSSE 7.0 13.0------ 35.4-----
2024-02-25 10:00 amSSE 5.1 12.0------ 36.0-----
2024-02-25 09:50 am SE 8.0 13.0------ 35.6-----
2024-02-25 09:40 am SE 7.0 12.0------ 35.4-----
2024-02-25 09:30 amSSE 7.0 12.0------ 35.2-----
2024-02-25 09:20 am SE 7.0 13.0------ 35.2-----
2024-02-25 09:10 amSSE 4.1 12.0------ 35.1-----
2024-02-25 09:00 am SE 4.1 11.1------ 35.2-----
2024-02-25 08:50 am SE 5.1 11.1------ 34.0-----
2024-02-25 08:40 am SE 5.1 8.9------ 33.6-----
2024-02-25 08:30 amSSE 6.0 11.1------ 32.7-----
2024-02-25 08:20 am SE 5.1 9.9------ 32.5-----
2024-02-25 08:10 am SE 6.0 9.9------ 32.2-----
2024-02-25 08:00 am SE 4.1 9.9------ 31.8-----
2024-02-25 07:50 am SE 6.0 8.9------ 31.8-----
2024-02-25 07:40 am SE 5.1 11.1------ 31.6-----
2024-02-25 07:30 am SE 6.0 12.0------ 31.5-----
2024-02-25 07:20 amSSE 8.0 11.1------ 31.3-----
2024-02-25 07:10 am SE 2.9 8.9------ 31.1-----
2024-02-25 07:00 am SE 6.0 11.1------ 31.1-----
2024-02-25 06:50 amSSE 4.1 11.1------ 30.9-----
2024-02-25 06:40 amSSE 6.0 12.0------ 30.9-----
2024-02-25 06:30 amSSE 5.1 12.0------ 31.1-----
2024-02-25 06:20 am SE 4.1 8.9------ 31.1-----
2024-02-25 06:10 am SE 4.1 11.1------ 31.3-----
2024-02-25 06:00 amSSE 7.0 11.1------ 31.6-----
2024-02-25 05:50 amSSE 6.0 11.1------ 31.8-----
2024-02-25 05:40 amSSE 7.0 12.0------ 31.5-----
2024-02-25 05:30 amSSE 6.0 13.0------ 31.3-----
2024-02-25 05:20 amSSE 8.0 12.0------ 31.5-----
2024-02-25 05:10 amSSE 6.0 13.0------ 30.7-----
2024-02-25 05:00 am SE 4.1 9.9------ 30.4-----
2024-02-25 04:50 amSSE 5.1 9.9------ 30.6-----